Regional Weather Roundup
Issued by NWS Nashville, TN

Home | Current Version | Previous Version | Text Only | Print | Product List | Glossary On
Versions: 1 2 3 4 5 6 7 8 9 10 11 12 13 14 15 16 17 18 19 20 21 22 23 24 25 26 27
000
ASUS44 KOHX 241710
RWROHX
MIDDLE TENNESSEE HOURLY WEATHER ROUNDUP
NATIONAL WEATHER SERVICE NASHVILLE TN
1200 PM CDT FRI MAR 24 2017

NOTE: "FAIR" INDICATES FEW OR NO CLOUDS BELOW 12,000 FEET WITH
NO SIGNIFICANT WEATHER AND/OR OBSTRUCTIONS TO VISIBILITY.

* THESE REPORTS ARE NOT UNDER NWS QUALITY CONTROL AND MAY NOT
  REPORT WEATHER SUCH AS PRECIPITATION AND FOG.


TNZ005>011-023>034-057-059-062>066-078-080-241800
...NORTHERN MIDDLE TENNESSEE...

CITY           SKY/WX    TMP DP  RH WIND       PRES   REMARKS
CLARKSVILLE    MOSUNNY   73  53  49 S17G26    30.22F
CROSSVILLE     SUNNY     62  46  55 S9G22     30.36S
GALLATIN       MOSUNNY   72  54  53 S9G22     30.30F
LIVINGSTON     PTSUNNY   70  49  47 SW15      30.31
NASHVILLE      PTSUNNY   72  53  51 S21G31    30.28F
PORTLAND       SUNNY     72  54  53 SW22G33   30.26F
SMYRNA         PTSUNNY   72  54  53 S16       30.28F
SPARTA         CLOUDY    68  50  52 SW14G21   30.30F
SPRINGFIELD    MOSUNNY   72  55  56 S16G24    30.23F
WEST NASHVILLE MOSUNNY   70  54  56 S16       30.26F
$$
TNZ056-058-060-061-075>077-079-093>097-241800
...SOUTHERN MIDDLE TENNESSEE...

CITY           SKY/WX    TMP DP  RH WIND       PRES   REMARKS
COLUMBIA       PTSUNNY   70  55  60 S17       30.26F
FAYETTEVILLE   PTSUNNY   70  54  56 S15G25    30.32R
MCMINNVILLE    PTSUNNY   70  52  52 S13       30.32S
SHELBYVILLE    CLOUDY    70  55  60 S15       30.32S
TULLAHOMA      PTSUNNY   66  48  52 S9        30.33S
WINCHESTER     SUNNY     70  52  52 S13       30.33S
$$


...KEY TO REMARKS...
VSB - VISIBILITY IN MILES
WCI - WIND CHILL INDEX
HX  - HEAT INDEX





USA.gov is the U.S. government's official web portal to all federal, state and local government web resources and services.